カタログに戻る

CZ-3B DEB

運用中GTO
NORAD 40185·DEBRIS·🇨🇳 China

打ち上げ Dec 19, 2011 から Xichang Satellite Launch Center

Loading…

TLE

古いSource: Space-Track

元期: Sep 13, 2026, 19:10 UTC

1 40185U 11077J   26256.79866150 -.00000254  00000-0  11220-2 0  9997
2 40185  24.8117 212.2160 7458089 306.1972   5.9280  1.93044074 87041

AllMySatでCZ-3B DEBをリアルタイム追跡

Download on the App Store